Location: Betra
(48.4113°N, 8.6634°E)
Time: 20:37:32
(UTC+00:00)

Cosmos 1315 Rocket - Pass Details

Date: 23 May 2024
Orbit: 515 x 542 km, 81.2° (Epoch: 16 June)

Event Time Altitude Azimuth Distance (km) Brightness Sun altitude
Exits shadow 01:39:59 24° 234° (SW) 1,109 3.8 -14.4°
Maximum altitude 01:41:47 39° 287° (WNW) 796 3.5 -14.2°
Drops below altitude 10° 01:45:30 10° 358° (N) 1,787 6.3 -13.9°
Sets 01:47:46 0° 6° (N) 2,688 7.5 -13.7°
